Location: Chenereilles
(45.4866°N, 4.0790°E)
Time: 03:25:21
(UTC+00:00)

Cosmos 2263 Rocket - Pass Details

Date: 12 November 2019
Orbit: 825 x 847 km, 71.0° (Epoch: 06 December)

Event Time Altitude Azimuth Distance (km) Brightness Sun altitude
Rises 19:51:46 0° 334° (NNW) 3,375 5.8 -37.6°
Reaches altitude 10° 19:54:13 10° 336° (NNW) 2,437 4.9 -38.0°
Enters shadow 19:55:14 16° 337° (NNW) 2,057 4.5 -38.2°
